Weather History for KPMP - February, 2014

Change the Weather History Date:

Friday, February 14, 2014

  Actual Average Record
Temperature  
Mean Temperature 58 °F -  
Max Temperature 69 °F 77 °F 88 °F (1991)
Min Temperature 48 °F 56 °F 36 °F (1958)
Degree Days  
Heating Degree Days 6    
Growing Degree Days 8 (Base 50)    
Moisture  
Dew Point 44 °F    
Average Humidity 62    
Maximum Humidity 86    
Minimum Humidity 28    
Precipitation  
Precipitation 0.00 in - - ()
Sea Level Pressure  
Sea Level Pressure 30.02 in    
Wind  
Wind Speed 7 mph (West)    
Max Wind Speed 10 mph    
Max Gust Speed -    
Visibility 10 miles    
Events      
Averages and records for this station are not official NWS values.
T = Trace of Precipitation, MM = Missing Value Source: NWS Daily Summary

Daily Weather History Graph

Daily Weather History Graph

Search for Another Location

Airport or City:

Trip Planner

Search our weather history database for the weather conditions in past years. The results will help you decide how hot, cold, wet, or windy it might be!

Date:

Astronomy

Feb. 14, 2014 Rise Set
Actual Time 6:56 AM EST 6:12 PM EST
Civil Twilight 6:33 AM EST 6:36 PM EST
Nautical Twilight 6:06 AM EST 7:03 PM EST
Astronomical Twilight 5:39 AM EST 7:30 PM EST
Moon 6:09 PM EST (2/14) 6:25 AM EST (2/14)
Length of Visible Light 12h 03m
Length of Day
11h 15m
Full, 100% of the Moon is Illuminated
Feb 14
Full
Feb 14
Full
Feb 22
Last Quarter
Mar 1
New
Mar 8
First Quarter

Hourly Weather History & Observations

Time (EST) Temp. Dew Point Humidity Pressure Visibility Wind Dir Wind Speed Gust Speed Precip Events Conditions
12:53 AM 55.0 °F 50.0 °F 83% 29.98 in 10.0 mi WNW 8.1 mph - N/A   Clear
1:53 AM 53.1 °F 48.9 °F 86% 29.98 in 10.0 mi WNW 9.2 mph - N/A   Clear
2:53 AM 53.1 °F 48.9 °F 86% 29.97 in 10.0 mi WNW 8.1 mph - N/A   Clear
3:53 AM 52.0 °F 48.0 °F 86% 29.98 in 10.0 mi NW 8.1 mph - N/A   Clear
4:26 AM 53.6 °F 48.2 °F 82% 29.98 in 10.0 mi NNW 9.2 mph - N/A   Mostly Cloudy
4:53 AM 52.0 °F 46.9 °F 83% 30.00 in 10.0 mi NW 10.4 mph - N/A   Mostly Cloudy
5:01 AM 51.8 °F 46.4 °F 82% 30.00 in 10.0 mi NW 10.4 mph - N/A   Scattered Clouds
5:53 AM 48.9 °F 44.1 °F 83% 30.02 in 10.0 mi NW 4.6 mph - N/A   Clear
6:53 AM 48.0 °F 41.0 °F 77% 30.04 in 10.0 mi NW 4.6 mph - N/A   Clear
7:53 AM 50.0 °F 42.1 °F 74% 30.07 in 10.0 mi NW 4.6 mph - N/A   Clear
8:53 AM 52.0 °F 43.0 °F 71% 30.08 in 10.0 mi West 3.5 mph - N/A   Clear
9:53 AM 57.0 °F 44.1 °F 62% 30.09 in 10.0 mi Variable 5.8 mph - N/A   Clear
10:53 AM 61.0 °F 39.9 °F 46% 30.09 in 10.0 mi Calm Calm - N/A   Clear
11:53 AM 64.0 °F 35.1 °F 34% 30.07 in 10.0 mi Calm Calm - N/A   Clear
12:53 PM 66.0 °F 35.1 °F 32% 30.04 in 10.0 mi East 6.9 mph - N/A   Clear
1:53 PM 66.9 °F 33.1 °F 28% 30.01 in 10.0 mi SE 6.9 mph - N/A   Clear
2:53 PM 68.0 °F 37.0 °F 32% 29.99 in 10.0 mi ESE 6.9 mph - N/A   Clear
3:53 PM 69.1 °F 39.0 °F 33% 29.98 in 10.0 mi ESE 8.1 mph - N/A   Clear
4:53 PM 68.0 °F 42.1 °F 39% 29.98 in 10.0 mi SE 5.8 mph - N/A   Clear
5:53 PM 66.9 °F 42.1 °F 40% 29.98 in 10.0 mi SSE 6.9 mph - N/A   Clear
6:53 PM 64.9 °F 48.0 °F 54% 30.00 in 10.0 mi South 5.8 mph - N/A   Clear
7:53 PM 64.0 °F 48.9 °F 58% 30.01 in 10.0 mi SSW 4.6 mph - N/A   Clear
8:53 PM 62.1 °F 48.9 °F 62% 30.02 in 10.0 mi Calm Calm - N/A   Clear
9:53 PM 60.1 °F 48.9 °F 67% 30.03 in 10.0 mi WSW 3.5 mph - N/A   Clear
10:53 PM 60.1 °F 48.9 °F 67% 30.03 in 10.0 mi West 6.9 mph - N/A   Clear
11:53 PM 59.0 °F 50.0 °F 72% 30.03 in 10.0 mi West 8.1 mph - N/A   Clear